User: anonymous   Login
Location: Proctor
(47.8934°N, 114.3048°W)
Time: 07:40:34
(UTC+00:00)
Language:

Hubble Space Telescope - Orbit

View from above orbital plane
View from above orbital plane
View from above satellite
View from above satellite

Ground track
Ground track

The orbit data is extracted from the following two-line orbital elements,

1 20580U 90037B   24173.65721054  .00005665  00000-0  26314-3 0  9992
2 20580  28.4697 315.1828 0003085  84.0999 275.9945 15.17811349677715
Epoch (UTC): 21 June 2024 15:46:22
Eccentricity: 0.0003085
inclination: 28.4697°
perigee height: 510 km
apogee height: 514 km
right ascension of ascending node: 315.1828°
argument of perigee: 84.0999°
revolutions per day: 15.17811349
mean anomaly at epoch: 275.9945°
orbit number at epoch: 67771

The dashed part of the orbit path shows where the satellite is in the earth's shadow,  

DLR